Regional Weather Roundup
Issued by NWS

Home | Current Version | Previous Version | Graphics & Text | Print | Product List | Glossary On
Versions: 1 2 3 4 5 6 7 8 9 10 11 12 13 14 15 16 17 18 19 20 21 22 23 24 25 26 27 28 29 30 31 32 33 34 35 36 37 38 39 40 41 42 43 44 45 46 47 48 49 50
270
ASUS43 KLOT 231607
RWRIL

ILLINOIS REGIONAL WEATHER ROUNDUP
NATIONAL WEATHER SERVICE CHICAGO/ROMEOVILLE IL
1100 AM CDT THU MAR 23 2017

NOTE: "FAIR" INDICATES FEW OR NO CLOUDS BELOW 12,000 FEET WITH NO
SIGNIFICANT WEATHER AND/OR OBSTRUCTIONS TO VISIBILITY.

* THESE STATIONS ARE NOT UNDER NWS QUALITY CONTROL. THEY ALSO MAY NOT
  REPORT WEATHER SUCH AS PRECIPITATION OR FOG.

ILZ001-002-007-009-015-016-024-231700-
NORTHWEST ILLINOIS

CITY           SKY/WX    TMP DP  RH WIND       PRES   REMARKS
MOLINE         CLOUDY    40  24  53 SE13      30.26F
STERLING*      PTSUNNY   41  25  53 SE13G18   30.31F
SAVANNA*       CLOUDY    40  24  52 SE16      30.28F
$$

ILZ003-004-008-010-011-017-018-231700-
NORTH CENTRAL ILLINOIS

CITY           SKY/WX    TMP DP  RH WIND       PRES   REMARKS
ROCKFORD       MOSUNNY   43  23  45 SE20G25   30.34F
FREEPORT*      CLOUDY    40  23  50 SE17G23   30.31F
ROCHELLE*      PTSUNNY   41  24  51 SE18      30.33F
DE KALB*       SUNNY     40  24  53 SE14      30.34F
PERU*          CLOUDY    37  24  59 S14       30.35S WCI  28
$$

ILZ005-006-012>014-019>023-231700-
NORTHEAST ILLINOIS

CITY           SKY/WX    TMP DP  RH WIND       PRES   REMARKS
CHICAGO-OHARE  PTSUNNY   39  20  46 S14       30.37F WCI  31
CHICAGO-MIDWAY CLOUDY    38  20  48 SE13      30.39F WCI  30
AURORA         SUNNY     41  23  48 SE14G24   30.36F
LANSING*       CLOUDY    37  24  60 S12       30.40F WCI  29
JOLIET*        PTSUNNY   39  24  53 SE10      30.38F WCI  33
WAUKEGAN       CLOUDY    36  23  59 S14G23    30.37F WCI  27
DUPAGE AIRPORT SUNNY     40  22  48 S16       30.36F
KANKAKEE*      CLOUDY    39  24  53 SE14      30.39F WCI  31
WHEELING       CLOUDY    38  20  48 S13       30.38F WCI  30
MORRIS*        PTSUNNY   40  24  53 SE12      30.35F
ROMEOVILLE*    MOSUNNY   39  28  63 S13       30.37F WCI  31
NORTHERLY ISL    N/A     38  22  52 SE12        N/A  WCI  30
$$

LMZ740>746-231700-
SOUTHERN LAKE MICHIGAN

STATION/POSITION SKY/WX   TEMP    WIND        PRES    VSBY  WAVE
                          AIR SEA DIR/SP/G                  HT/PER
                          (F)     (DEG/KT/KT) (MB)    (MI)  (FT/S)
HARRISON CRIB              35     160/ 16/ 18   N/A
BURNHAM HARBOR             39     140/ 10/ 13   N/A
CALUMET HARBOR             35     130/ 11/ 17 1028.5F
BURNS HARBOR               35     140/ 14/ 18 1029.8F
MICHIGAN CITY              33     130/ 10/ 12   N/A
$$

ILZ025>027-034>036-040-047-049-050-058-095>099-231700-
WEST-CENTRAL ILLINOIS

CITY           SKY/WX    TMP DP  RH WIND       PRES   REMARKS
QUINCY         LGT RAIN  38  34  85 SE16      30.23F WCI  29
GALESBURG*     CLOUDY    38  30  73 SE12G20   30.26F WCI  30
MACOMB*        CLOUDY    36  34  92 SE16      30.28F FOG     WCI  26
JACKSONVILLE*  LGT RAIN  36  34  92 SE15      30.29F WCI  26
PITTSFIELD*    CLOUDY    37  35  90 SE15      30.27F WCI  28
$$

ILZ028>032-037-038-041>044-048-051>054-059>061-231700-
CENTRAL ILLINOIS

CITY           SKY/WX    TMP DP  RH WIND       PRES   REMARKS
PONTIAC        CLOUDY    39  27  61 SE14      30.36F WCI  31
BLOOMINGTON    LGT RAIN  38  24  57 SE16      30.34F WCI  29
DECATUR        LGT RAIN  39  26  59 SE14      30.35S WCI  31
PEORIA         LGT RAIN  38  28  67 SE13G20   30.31F WCI  30
LACON*         CLOUDY    37  25  61 SE12      30.32F WCI  30
LINCOLN*       CLOUDY    39  31  72 S13       30.33F WCI  31
SPRINGFIELD    LGT RAIN  38  31  76 S12       30.34S WCI  30
TAYLORVILLE    RAIN      36  31  83 S9        30.34F WCI  29
$$

ILZ033-039-045-046-055>057-062-063-231700-
EAST-CENTRAL ILLINOIS

CITY           SKY/WX    TMP DP  RH WIND       PRES   REMARKS
CHAMPAIGN      CLOUDY    41  21  44 SE14      30.36F
RANTOUL*       PTSUNNY   40  26  57 SE14      30.37F
MATTOON        LGT RAIN  39  24  55 SE12      30.35F WCI  32
PARIS*         CLOUDY    41  25  53 SE15      30.38F
$$

ILZ079-100>102-231700-
SOUTHWEST ILLINOIS

CITY           SKY/WX    TMP DP  RH WIND       PRES   REMARKS
ALTON          CLOUDY    36  34  93 E9        30.32F WCI  29
CAHOKIA*       CLOUDY    40  34  79 SE9       30.31S
SPARTA*        CLOUDY    36  34  92 E10       30.33S WCI  28
$$

ILZ064>066-069>071-074>076-080>082-084>086-088>090-092>094-231700-
SOUTH-CENTRAL ILLINOIS

CITY           SKY/WX    TMP DP  RH WIND       PRES   REMARKS
CARBONDALE     CLOUDY    38  37  97 E6        30.32S WCI  33
CAIRO*         CLOUDY    41  33  73 E12       30.33F
EFFINGHAM*     LGT RAIN  38  31  77 E8        30.38F WCI  32
MARION         LGT RAIN  37  36  93 E9        30.33F WCI  31
MT. VERNON     RAIN      37  33  85 E7        30.35F WCI  32
CENTRALIA*     LGT RAIN  37  34  91 E7        30.35S WCI  31
SALEM*         RAIN      37  32  82 SE7       30.37R WCI  31
METROPOLIS*    CLOUDY    38  35  89 E8        30.34F WCI  32
$$

ILZ067-068-072-073-078-083-087-091-231700-
SOUTHEAST ILLINOIS

CITY           SKY/WX    TMP DP  RH WIND       PRES   REMARKS
LAWRENCEVILLE  CLOUDY    42  23  46 SE6       30.40F
FLORA*         LGT RAIN  39  29  67 SE8       30.38F WCI  34
FAIRFIELD*     LGT RAIN  38  31  75 E5        30.36F WCI  35
HARRISBURG*    LGT RAIN  36  34  92 E7        30.37F WCI  30
ROBINSON*      CLOUDY    41  23  48 SE6       30.41R
CARMI*         CLOUDY    38  32  78 SE5       30.38S WCI  34
$$

ABBREVIATIONS USED IN REMARKS
   TC - TEMPERATURE IN CELSIUS
  WCI - WIND CHILL INDEX
   HX - HEAT INDEX
  VSB - VISIBILITY
$$





USA.gov is the U.S. government's official web portal to all federal, state and local government web resources and services.